Hourly Data Report for September 03, 2017

All times are specified in Local Standard Time (LST). Add 1 hour to adjust for Daylight Saving Time where and when it is observed.

FISHER BRANCH (AUT)
MANITOBA

51°05'00.100" N
97°33'16.200" W
253.00 m
50309J6
71442
WSZ

Download Data

Hourly Data (September 2017)
Hourly Data Report for September 3, 2017
Temp Definition
°C
Dew Point Temp Definition
°C
Rel Hum Definition
%
Wind Dir Definition
10's deg

Wind Spd Definition
km/h
Visibility Definition
km
Stn Press Definition
kPa
Hmdx Definition


Wind Chill Definition


Weather Definition


TIME
00:00 14.1 10.5 79 20 8   97.90     LegendNANA
01:00 14.2 11.2 82 21 5   97.88     LegendNANA
02:00 13.1 11.4 90 19 1   97.84     LegendNANA
03:00 14.4 11.7 84 21 6   97.82     LegendNANA
04:00 14.7 12.6 87 23 4   97.84     LegendNANA
05:00 15.6 13.1 85 24 7   97.81     LegendNANA
06:00 15.2 12.8 86 29 4   97.80     LegendNANA
07:00 14.8 12.9 88 22 4   97.76     LegendNANA
08:00 15.0 13.0 88 24 5   97.74     LegendNANA
09:00 15.2 13.1 88 32 6   97.80     LegendNANA
10:00 15.1 13.4 89 30 6   97.82     LegendNANA
11:00 14.7 13.4 92 31 5   97.75     LegendNANA
12:00 14.6 13.0 90 33 7   97.77     LegendNANA
13:00 15.7 13.5 87 25 10   97.77     LegendNANA
14:00 19.0 14.9 77 31 13   97.76     LegendNANA
15:00 21.2 12.6 58 30 17   97.77     LegendNANA
16:00 15.3 12.8 85 34 16   97.85     LegendNANA
17:00 16.3 13.3 83 27 7   97.86     LegendNANA
18:00 18.0 12.7 71 28 6   97.90     LegendNANA
19:00 15.5 12.1 80 26 7   97.92     LegendNANA
20:00 14.1 11.0 82 29 9   97.94     LegendNANA
21:00 14.5 9.9 74 32 14   98.01     LegendNANA
22:00 12.1 9.3 83 29 7   98.01     LegendNANA
23:00 11.4 9.2 86 27 6   98.01     LegendNANA

Notes on Data Quality.

Legend

  • E = Estimated
  • M = Missing
  • NA = Not Available
  • ‡ = Partner data that is not subject to review by the National Climate Archives
Date modified: